ATLAS 5 CENTAUR DEB, 43967

Orbit data source: Space-Track

ATLAS 5 CENTAUR DEB, 43967 is space debris in HEO originally from a launch on Wed, 17 Sep 2014 UTC launched from the Air Force Eastern Test Range (AFETR). Debris objects in space refer to the collection of defunct objects orbiting the Earth. Examples of debris include non-operational satellites, rocket bodies, and fragments generated from explosions, collisions, or faulty payload assembly.

Loading next visibility...
Identifier
43967, 2014-055W
Orbit
HEO
Country
Flag of USUS
Related business
Flag of USUnited Launch Alliance/Lockheed Martin (US)
Manufacturer
Unknown
Mission
Spacecraft
Bus & Motor
Unknown
Mass
Unknown
Launch date (UTC)
2014-09-17 (11 years ago)
Launch vehicle
Unknown
Launch site
Air Force Eastern Test Range (AFETR)
Object type
Payload
Rocket body
Debris
Shape & HBR
Unknown
Radar Cross Section
Medium (>0.1 m² and <1 m²)

Expand to show TLE details & history
Last TLE update: 1 week ago

TLE from 1 week ago
0 ATLAS 5 CENTAUR DEB
1 43967U 14055W   25253.52001503 -.00000014  00000-0  00000-0 0  9993
2 43967  19.6918 161.8815 5097386 131.2315 285.3892  1.82847221 46887
Epoch: 2025-09-10T12:28Z
TLE epoch observation values (Epoch: 2025-09-10T12:28:49.298Z)
Latitude
0.00002°
Longitude
-15.15099°
Altitude
25,152.261 km
Speed
3.343 km/s
True Right ascension
10h 47m 23s
True Declination
0° 00' 00"
Sunlit
Object was in daylight at epoch
Visualization orbit readout
Latitude
Unknown
Longitude
Unknown
Altitude
Unknown
Speed
Unknown
Apparent Right ascension
Unknown
Apparent Declination
Unknown
Sunlit
N/A
Visualization observer readout
Local Sidereal Time
02:41:32
Azimuth
Unknown
Elevation
Unknown
Doppler factor
Unknown
Orbital elements
Apogee altitude
36,274.202 km
Perigee altitude
7,472.47 km
Semi-major axis
28,251.473 km
Eccentricity
0.50974
Inclination
19.6918°
RAAN
161.8815°
Arg. of periapsis
131.2315°
True anomaly
228.72068°
Mean anomaly
285.3892°
Eccentric anomaly
256.9389°
Mean motion
0.45707 °/min
Orbital period
787.63 mins
BSTAR
0
Loading maneuver chart data...
Computing Atmospheric mass density...

Documentation

Showing up to 5 results
|